owner,sensor,date,latitude,longitude,vertical_datum,sea_water_practical_salinity,qcFlag 
ENP,ioos.station.NOAA.NDBC:WIWF1:1,2015-01-07T20:00:00Z,25.5870,-81.0440,1.5,0.91,1111122 
ENP,ioos.station.NOAA.NDBC:WIWF1:1,2015-01-07T21:00:00Z,25.5870,-81.0440,1.5,0.87,1111122 
ENP,ioos.station.NOAA.NDBC:WIWF1:1,2015-01-07T22:00:00Z,25.5870,-81.0440,1.5,0.86,1111122 
ENP,ioos.station.NOAA.NDBC:WIWF1:1,2015-01-07T23:00:00Z,25.5870,-81.0440,1.5,0.86,1111122 
ENP,ioos.station.NOAA.NDBC:WIWF1:1,2015-01-08T00:00:00Z,25.5870,-81.0440,1.5,0.88,1111122 
ENP,ioos.station.NOAA.NDBC:WIWF1:1,2015-01-08T01:00:00Z,25.5870,-81.0440,1.5,0.95,1111122 
ENP,ioos.station.NOAA.NDBC:WIWF1:1,2015-01-08T02:00:00Z,25.5870,-81.0440,1.5,0.95,1111122 
ENP,ioos.station.NOAA.NDBC:WIWF1:1,2015-01-08T03:00:00Z,25.5870,-81.0440,1.5,0.96,1111122 
ENP,ioos.station.NOAA.NDBC:WIWF1:1,2015-01-08T05:00:00Z,25.5870,-81.0440,1.5,0.96,1111122 
ENP,ioos.station.NOAA.NDBC:WIWF1:1,2015-01-08T06:00:00Z,25.5870,-81.0440,1.5,0.95,1111122 
ENP,ioos.station.NOAA.NDBC:WIWF1:1,2015-01-08T07:00:00Z,25.5870,-81.0440,1.5,0.91,1111122 
ENP,ioos.station.NOAA.NDBC:WIWF1:1,2015-01-08T08:00:00Z,25.5870,-81.0440,1.5,0.86,1111122 
ENP,ioos.station.NOAA.NDBC:WIWF1:1,2015-01-08T09:00:00Z,25.5870,-81.0440,1.5,0.78,1111122 
ENP,ioos.station.NOAA.NDBC:WIWF1:1,2015-01-08T10:00:00Z,25.5870,-81.0440,1.5,0.76,1111122 
ENP,ioos.station.NOAA.NDBC:WIWF1:1,2015-01-08T11:00:00Z,25.5870,-81.0440,1.5,0.78,1111122 
ENP,ioos.station.NOAA.NDBC:WIWF1:1,2015-01-08T12:00:00Z,25.5870,-81.0440,1.5,0.79,1111122 
ENP,ioos.station.NOAA.NDBC:WIWF1:1,2015-01-08T13:00:00Z,25.5870,-81.0440,1.5,0.86,1111122 
ENP,ioos.station.NOAA.NDBC:WIWF1:1,2015-01-08T14:00:00Z,25.5870,-81.0440,1.5,0.88,1111122 
ENP,ioos.station.NOAA.NDBC:WIWF1:1,2015-01-08T15:00:00Z,25.5870,-81.0440,1.5,0.84,1111122 
ENP,ioos.station.NOAA.NDBC:WIWF1:1,2015-01-08T16:00:00Z,25.5870,-81.0440,1.5,0.74,1111122 
ENP,ioos.station.NOAA.NDBC:WIWF1:1,2015-01-08T17:00:00Z,25.5870,-81.0440,1.5,0.74,1111122 
ENP,ioos.station.NOAA.NDBC:WIWF1:1,2015-01-08T18:00:00Z,25.5870,-81.0440,1.5,0.81,1111122 
ENP,ioos.station.NOAA.NDBC:WIWF1:1,2015-01-08T19:00:00Z,25.5870,-81.0440,1.5,0.88,1111122 
ENP,ioos.station.NOAA.NDBC:WIWF1:1,2015-01-08T20:00:00Z,25.5870,-81.0440,1.5,0.94,1111122 
ENP,ioos.station.NOAA.NDBC:WIWF1:1,2015-01-08T21:00:00Z,25.5870,-81.0440,1.5,0.96,1111122 
ENP,ioos.station.NOAA.NDBC:WIWF1:1,2015-01-08T22:00:00Z,25.5870,-81.0440,1.5,1.0,1111122 
ENP,ioos.station.NOAA.NDBC:WIWF1:1,2015-01-08T23:00:00Z,25.5870,-81.0440,1.5,1.01,1111122 
ENP,ioos.station.NOAA.NDBC:WIWF1:1,2015-01-09T00:00:00Z,25.5870,-81.0440,1.5,1.01,1111122 
ENP,ioos.station.NOAA.NDBC:WIWF1:1,2015-01-09T01:00:00Z,25.5870,-81.0440,1.5,1.0,1111122 
ENP,ioos.station.NOAA.NDBC:WIWF1:1,2015-01-09T02:00:00Z,25.5870,-81.0440,1.5,1.0,1111122 
ENP,ioos.station.NOAA.NDBC:WIWF1:1,2015-01-09T04:00:00Z,25.5870,-81.0440,1.5,0.82,1111122 
ENP,ioos.station.NOAA.NDBC:WIWF1:1,2015-01-09T05:00:00Z,25.5870,-81.0440,1.5,0.81,1111122 
ENP,ioos.station.NOAA.NDBC:WIWF1:1,2015-01-09T06:00:00Z,25.5870,-81.0440,1.5,0.81,1111122 
ENP,ioos.station.NOAA.NDBC:WIWF1:1,2015-01-09T07:00:00Z,25.5870,-81.0440,1.5,0.83,1111122 
ENP,ioos.station.NOAA.NDBC:WIWF1:1,2015-01-09T08:00:00Z,25.5870,-81.0440,1.5,0.88,1111122 
ENP,ioos.station.NOAA.NDBC:WIWF1:1,2015-01-09T09:00:00Z,25.5870,-81.0440,1.5,0.89,1111122 
ENP,ioos.station.NOAA.NDBC:WIWF1:1,2015-01-09T10:00:00Z,25.5870,-81.0440,1.5,0.83,1111122 
ENP,ioos.station.NOAA.NDBC:WIWF1:1,2015-01-09T11:00:00Z,25.5870,-81.0440,1.5,0.96,1111122 
ENP,ioos.station.NOAA.NDBC:WIWF1:1,2015-01-09T12:00:00Z,25.5870,-81.0440,1.5,1.2,1111122 
ENP,ioos.station.NOAA.NDBC:WIWF1:1,2015-01-09T13:00:00Z,25.5870,-81.0440,1.5,1.16,1111122 
ENP,ioos.station.NOAA.NDBC:WIWF1:1,2015-01-09T14:00:00Z,25.5870,-81.0440,1.5,1.07,1111122 
ENP,ioos.station.NOAA.NDBC:WIWF1:1,2015-01-10T12:00:00Z,25.5870,-81.0440,1.5,0.78,1111122 
ENP,ioos.station.NOAA.NDBC:WIWF1:1,2015-01-10T13:00:00Z,25.5870,-81.0440,1.5,0.83,1111122 
ENP,ioos.station.NOAA.NDBC:WIWF1:1,2015-01-10T14:00:00Z,25.5870,-81.0440,1.5,0.84,1111122 
ENP,ioos.station.NOAA.NDBC:WIWF1:1,2015-01-10T15:00:00Z,25.5870,-81.0440,1.5,0.84,1111122 
ENP,ioos.station.NOAA.NDBC:WIWF1:1,2015-01-10T16:00:00Z,25.5870,-81.0440,1.5,0.8,1111122 
ENP,ioos.station.NOAA.NDBC:WIWF1:1,2015-01-10T17:00:00Z,25.5870,-81.0440,1.5,0.81,1111122 
ENP,ioos.station.NOAA.NDBC:WIWF1:1,2015-01-10T18:00:00Z,25.5870,-81.0440,1.5,0.82,1111122 
ENP,ioos.station.NOAA.NDBC:WIWF1:1,2015-01-10T19:00:00Z,25.5870,-81.0440,1.5,0.81,1111122 
ENP,ioos.station.NOAA.NDBC:WIWF1:1,2015-01-10T20:00:00Z,25.5870,-81.0440,1.5,0.88,1111122 
ENP,ioos.station.NOAA.NDBC:WIWF1:1,2015-01-10T21:00:00Z,25.5870,-81.0440,1.5,1.02,1111122 
ENP,ioos.station.NOAA.NDBC:WIWF1:1,2015-01-10T22:00:00Z,25.5870,-81.0440,1.5,0.97,1111122 
ENP,ioos.station.NOAA.NDBC:WIWF1:1,2015-01-10T23:00:00Z,25.5870,-81.0440,1.5,0.97,1111122 
ENP,ioos.station.NOAA.NDBC:WIWF1:1,2015-01-11T00:00:00Z,25.5870,-81.0440,1.5,0.97,1111122 
ENP,ioos.station.NOAA.NDBC:WIWF1:1,2015-01-11T01:00:00Z,25.5870,-81.0440,1.5,0.98,1111122 
ENP,ioos.station.NOAA.NDBC:WIWF1:1,2015-01-11T02:00:00Z,25.5870,-81.0440,1.5,0.98,1111122 
ENP,ioos.station.NOAA.NDBC:WIWF1:1,2015-01-11T03:00:00Z,25.5870,-81.0440,1.5,1.07,1111122 
ENP,ioos.station.NOAA.NDBC:WIWF1:1,2015-01-11T04:00:00Z,25.5870,-81.0440,1.5,1.0,1111122 
ENP,ioos.station.NOAA.NDBC:WIWF1:1,2015-01-11T05:00:00Z,25.5870,-81.0440,1.5,0.96,1111122 
ENP,ioos.station.NOAA.NDBC:WIWF1:1,2015-01-11T06:00:00Z,25.5870,-81.0440,1.5,0.94,1111122 
ENP,ioos.station.NOAA.NDBC:WIWF1:1,2015-01-11T07:00:00Z,25.5870,-81.0440,1.5,0.89,1111122 
ENP,ioos.station.NOAA.NDBC:WIWF1:1,2015-01-11T08:00:00Z,25.5870,-81.0440,1.5,0.86,1111122 
ENP,ioos.station.NOAA.NDBC:WIWF1:1,2015-01-11T09:00:00Z,25.5870,-81.0440,1.5,0.85,1111122 
ENP,ioos.station.NOAA.NDBC:WIWF1:1,2015-01-11T10:00:00Z,25.5870,-81.0440,1.5,0.85,1111122 
ENP,ioos.station.NOAA.NDBC:WIWF1:1,2015-01-11T11:00:00Z,25.5870,-81.0440,1.5,0.85,1111122 
ENP,ioos.station.NOAA.NDBC:WIWF1:1,2015-01-11T12:00:00Z,25.5870,-81.0440,1.5,0.95,1111122 
ENP,ioos.station.NOAA.NDBC:WIWF1:1,2015-01-11T13:00:00Z,25.5870,-81.0440,1.5,1.1,1111122 
ENP,ioos.station.NOAA.NDBC:WIWF1:1,2015-01-11T14:00:00Z,25.5870,-81.0440,1.5,1.06,1111122 
ENP,ioos.station.NOAA.NDBC:WIWF1:1,2015-01-11T15:00:00Z,25.5870,-81.0440,1.5,0.96,1111122 
ENP,ioos.station.NOAA.NDBC:WIWF1:1,2015-01-11T16:00:00Z,25.5870,-81.0440,1.5,0.96,1111122 
ENP,ioos.station.NOAA.NDBC:WIWF1:1,2015-01-11T17:00:00Z,25.5870,-81.0440,1.5,0.95,1111122 
ENP,ioos.station.NOAA.NDBC:WIWF1:1,2015-01-11T18:00:00Z,25.5870,-81.0440,1.5,0.98,1111122 
ENP,ioos.station.NOAA.NDBC:WIWF1:1,2015-01-11T19:00:00Z,25.5870,-81.0440,1.5,0.96,1111122 
ENP,ioos.station.NOAA.NDBC:WIWF1:1,2015-01-11T20:00:00Z,25.5870,-81.0440,1.5,0.97,1111122 
ENP,ioos.station.NOAA.NDBC:WIWF1:1,2015-01-11T21:00:00Z,25.5870,-81.0440,1.5,0.97,1111122 
ENP,ioos.station.NOAA.NDBC:WIWF1:1,2015-01-11T22:00:00Z,25.5870,-81.0440,1.5,0.95,1111122 
ENP,ioos.station.NOAA.NDBC:WIWF1:1,2015-01-11T23:00:00Z,25.5870,-81.0440,1.5,0.94,1111122 
ENP,ioos.station.NOAA.NDBC:WIWF1:1,2015-01-12T00:00:00Z,25.5870,-81.0440,1.5,0.95,1111122 
ENP,ioos.station.NOAA.NDBC:WIWF1:1,2015-01-12T01:00:00Z,25.5870,-81.0440,1.5,1.02,1111122 
ENP,ioos.station.NOAA.NDBC:WIWF1:1,2015-01-12T02:00:00Z,25.5870,-81.0440,1.5,1.03,1111122 
ENP,ioos.station.NOAA.NDBC:WIWF1:1,2015-01-12T03:00:00Z,25.5870,-81.0440,1.5,1.14,1111122 
ENP,ioos.station.NOAA.NDBC:WIWF1:1,2015-01-12T04:00:00Z,25.5870,-81.0440,1.5,1.18,1111122 
ENP,ioos.station.NOAA.NDBC:WIWF1:1,2015-01-12T05:00:00Z,25.5870,-81.0440,1.5,1.18,1111122 
ENP,ioos.station.NOAA.NDBC:WIWF1:1,2015-01-12T06:00:00Z,25.5870,-81.0440,1.5,1.16,1111122 
ENP,ioos.station.NOAA.NDBC:WIWF1:1,2015-01-12T07:00:00Z,25.5870,-81.0440,1.5,1.14,1111122 
ENP,ioos.station.NOAA.NDBC:WIWF1:1,2015-01-12T08:00:00Z,25.5870,-81.0440,1.5,0.95,1111122 
ENP,ioos.station.NOAA.NDBC:WIWF1:1,2015-01-12T09:00:00Z,25.5870,-81.0440,1.5,0.93,1111122 
ENP,ioos.station.NOAA.NDBC:WIWF1:1,2015-01-12T10:00:00Z,25.5870,-81.0440,1.5,0.93,1111122 
ENP,ioos.station.NOAA.NDBC:WIWF1:1,2015-01-12T11:00:00Z,25.5870,-81.0440,1.5,0.88,1111122 
ENP,ioos.station.NOAA.NDBC:WIWF1:1,2015-01-12T12:00:00Z,25.5870,-81.0440,1.5,0.87,1111122 
ENP,ioos.station.NOAA.NDBC:WIWF1:1,2015-01-12T13:00:00Z,25.5870,-81.0440,1.5,0.93,1111122 
ENP,ioos.station.NOAA.NDBC:WIWF1:1,2015-01-12T14:00:00Z,25.5870,-81.0440,1.5,1.1,1111122 
ENP,ioos.station.NOAA.NDBC:WIWF1:1,2015-01-12T15:00:00Z,25.5870,-81.0440,1.5,1.15,1111122 
ENP,ioos.station.NOAA.NDBC:WIWF1:1,2015-01-12T16:00:00Z,25.5870,-81.0440,1.5,1.06,1111122 
ENP,ioos.station.NOAA.NDBC:WIWF1:1,2015-01-12T17:00:00Z,25.5870,-81.0440,1.5,1.0,1111122 
ENP,ioos.station.NOAA.NDBC:WIWF1:1,2015-01-12T18:00:00Z,25.5870,-81.0440,1.5,0.9,1111122 
ENP,ioos.station.NOAA.NDBC:WIWF1:1,2015-01-12T19:00:00Z,25.5870,-81.0440,1.5,0.9,1111122 
ENP,ioos.station.NOAA.NDBC:WIWF1:1,2015-01-12T20:00:00Z,25.5870,-81.0440,1.5,0.91,1111122 
ENP,ioos.station.NOAA.NDBC:WIWF1:1,2015-01-12T21:00:00Z,25.5870,-81.0440,1.5,0.91,1111122 
ENP,ioos.station.NOAA.NDBC:WIWF1:1,2015-01-12T22:00:00Z,25.5870,-81.0440,1.5,0.91,1111122 
ENP,ioos.station.NOAA.NDBC:WIWF1:1,2015-01-12T23:00:00Z,25.5870,-81.0440,1.5,0.92,1111122 
ENP,ioos.station.NOAA.NDBC:WIWF1:1,2015-01-13T00:00:00Z,25.5870,-81.0440,1.5,0.94,1111122 
ENP,ioos.station.NOAA.NDBC:WIWF1:1,2015-01-13T01:00:00Z,25.5870,-81.0440,1.5,1.07,1111122 
ENP,ioos.station.NOAA.NDBC:WIWF1:1,2015-01-13T02:00:00Z,25.5870,-81.0440,1.5,1.34,1111122 
ENP,ioos.station.NOAA.NDBC:WIWF1:1,2015-01-13T03:00:00Z,25.5870,-81.0440,1.5,1.37,1111122 
ENP,ioos.station.NOAA.NDBC:WIWF1:1,2015-01-13T04:00:00Z,25.5870,-81.0440,1.5,1.37,1111122 
ENP,ioos.station.NOAA.NDBC:WIWF1:1,2015-01-13T05:00:00Z,25.5870,-81.0440,1.5,1.36,1111122 
ENP,ioos.station.NOAA.NDBC:WIWF1:1,2015-01-13T06:00:00Z,25.5870,-81.0440,1.5,1.34,1111122 
ENP,ioos.station.NOAA.NDBC:WIWF1:1,2015-01-13T07:00:00Z,25.5870,-81.0440,1.5,1.33,1111122 
ENP,ioos.station.NOAA.NDBC:WIWF1:1,2015-01-13T08:00:00Z,25.5870,-81.0440,1.5,1.24,1111122 
ENP,ioos.station.NOAA.NDBC:WIWF1:1,2015-01-13T09:00:00Z,25.5870,-81.0440,1.5,1.03,1111122 
ENP,ioos.station.NOAA.NDBC:WIWF1:1,2015-01-13T10:00:00Z,25.5870,-81.0440,1.5,0.96,1111122 
ENP,ioos.station.NOAA.NDBC:WIWF1:1,2015-01-13T11:00:00Z,25.5870,-81.0440,1.5,0.96,1111122 
ENP,ioos.station.NOAA.NDBC:WIWF1:1,2015-01-13T12:00:00Z,25.5870,-81.0440,1.5,0.96,1111122 
ENP,ioos.station.NOAA.NDBC:WIWF1:1,2015-01-13T13:00:00Z,25.5870,-81.0440,1.5,0.95,1111122 
ENP,ioos.station.NOAA.NDBC:WIWF1:1,2015-01-13T14:00:00Z,25.5870,-81.0440,1.5,0.94,1111122 
ENP,ioos.station.NOAA.NDBC:WIWF1:1,2015-01-13T15:00:00Z,25.5870,-81.0440,1.5,1.15,1111122 
ENP,ioos.station.NOAA.NDBC:WIWF1:1,2015-01-13T16:00:00Z,25.5870,-81.0440,1.5,1.31,1111122 
ENP,ioos.station.NOAA.NDBC:WIWF1:1,2015-01-13T17:00:00Z,25.5870,-81.0440,1.5,1.03,1111122 
ENP,ioos.station.NOAA.NDBC:WIWF1:1,2015-01-13T18:00:00Z,25.5870,-81.0440,1.5,1.02,1111122 
ENP,ioos.station.NOAA.NDBC:WIWF1:1,2015-01-13T19:00:00Z,25.5870,-81.0440,1.5,1.03,1111122 
ENP,ioos.station.NOAA.NDBC:WIWF1:1,2015-01-13T20:00:00Z,25.5870,-81.0440,1.5,1.03,1111122 
ENP,ioos.station.NOAA.NDBC:WIWF1:1,2015-01-13T21:00:00Z,25.5870,-81.0440,1.5,0.98,1111122 
ENP,ioos.station.NOAA.NDBC:WIWF1:1,2015-01-13T22:00:00Z,25.5870,-81.0440,1.5,0.99,1111122 
ENP,ioos.station.NOAA.NDBC:WIWF1:1,2015-01-13T23:00:00Z,25.5870,-81.0440,1.5,0.96,1111122 
ENP,ioos.station.NOAA.NDBC:WIWF1:1,2015-01-14T00:00:00Z,25.5870,-81.0440,1.5,0.95,1111122 
ENP,ioos.station.NOAA.NDBC:WIWF1:1,2015-01-14T01:00:00Z,25.5870,-81.0440,1.5,0.98,1111122 
ENP,ioos.station.NOAA.NDBC:WIWF1:1,2015-01-14T02:00:00Z,25.5870,-81.0440,1.5,1.27,1111122 
ENP,ioos.station.NOAA.NDBC:WIWF1:1,2015-01-14T03:00:00Z,25.5870,-81.0440,1.5,1.31,1111122 
ENP,ioos.station.NOAA.NDBC:WIWF1:1,2015-01-14T04:00:00Z,25.5870,-81.0440,1.5,1.31,1111122 
ENP,ioos.station.NOAA.NDBC:WIWF1:1,2015-01-14T05:00:00Z,25.5870,-81.0440,1.5,1.32,1111122 
ENP,ioos.station.NOAA.NDBC:WIWF1:1,2015-01-14T06:00:00Z,25.5870,-81.0440,1.5,1.36,1111122 
ENP,ioos.station.NOAA.NDBC:WIWF1:1,2015-01-14T07:00:00Z,25.5870,-81.0440,1.5,1.39,1111122 
ENP,ioos.station.NOAA.NDBC:WIWF1:1,2015-01-14T08:00:00Z,25.5870,-81.0440,1.5,1.39,1111122 
ENP,ioos.station.NOAA.NDBC:WIWF1:1,2015-01-14T09:00:00Z,25.5870,-81.0440,1.5,1.39,1111122 
ENP,ioos.station.NOAA.NDBC:WIWF1:1,2015-01-14T10:00:00Z,25.5870,-81.0440,1.5,1.15,1111122 
ENP,ioos.station.NOAA.NDBC:WIWF1:1,2015-01-14T11:00:00Z,25.5870,-81.0440,1.5,1.08,1111122 
ENP,ioos.station.NOAA.NDBC:WIWF1:1,2015-01-14T12:00:00Z,25.5870,-81.0440,1.5,1.04,1111122 
ENP,ioos.station.NOAA.NDBC:WIWF1:1,2015-01-14T13:00:00Z,25.5870,-81.0440,1.5,1.04,1111122 
ENP,ioos.station.NOAA.NDBC:WIWF1:1,2015-01-14T14:00:00Z,25.5870,-81.0440,1.5,1.03,1111122 
ENP,ioos.station.NOAA.NDBC:WIWF1:1,2015-01-14T15:00:00Z,25.5870,-81.0440,1.5,0.99,1111122 
ENP,ioos.station.NOAA.NDBC:WIWF1:1,2015-01-14T16:00:00Z,25.5870,-81.0440,1.5,0.96,1111122 
ENP,ioos.station.NOAA.NDBC:WIWF1:1,2015-01-14T17:00:00Z,25.5870,-81.0440,1.5,0.96,1111122 
ENP,ioos.station.NOAA.NDBC:WIWF1:1,2015-01-14T18:00:00Z,25.5870,-81.0440,1.5,0.95,1111122 
ENP,ioos.station.NOAA.NDBC:WIWF1:1,2015-01-14T19:00:00Z,25.5870,-81.0440,1.5,0.96,1111122 
ENP,ioos.station.NOAA.NDBC:WIWF1:1,2015-01-14T20:00:00Z,25.5870,-81.0440,1.5,0.96,1111122 
ENP,ioos.station.NOAA.NDBC:WIWF1:1,2015-01-14T21:00:00Z,25.5870,-81.0440,1.5,0.96,1111122 
ENP,ioos.station.NOAA.NDBC:WIWF1:1,2015-01-14T22:00:00Z,25.5870,-81.0440,1.5,0.96,1111122 
ENP,ioos.station.NOAA.NDBC:WIWF1:1,2015-01-14T23:00:00Z,25.5870,-81.0440,1.5,0.97,1111122 
ENP,ioos.station.NOAA.NDBC:WIWF1:1,2015-01-15T00:00:00Z,25.5870,-81.0440,1.5,0.96,1111122 
ENP,ioos.station.NOAA.NDBC:WIWF1:1,2015-01-15T01:00:00Z,25.5870,-81.0440,1.5,0.95,1111122 
ENP,ioos.station.NOAA.NDBC:WIWF1:1,2015-01-15T02:00:00Z,25.5870,-81.0440,1.5,0.96,1111122 
ENP,ioos.station.NOAA.NDBC:WIWF1:1,2015-01-15T03:00:00Z,25.5870,-81.0440,1.5,1.29,1111122 
ENP,ioos.station.NOAA.NDBC:WIWF1:1,2015-01-15T04:00:00Z,25.5870,-81.0440,1.5,1.51,1111122 
ENP,ioos.station.NOAA.NDBC:WIWF1:1,2015-01-15T05:00:00Z,25.5870,-81.0440,1.5,1.46,1111122 
ENP,ioos.station.NOAA.NDBC:WIWF1:1,2015-01-15T06:00:00Z,25.5870,-81.0440,1.5,1.46,1111122 
ENP,ioos.station.NOAA.NDBC:WIWF1:1,2015-01-15T07:00:00Z,25.5870,-81.0440,1.5,1.45,1111122 
ENP,ioos.station.NOAA.NDBC:WIWF1:1,2015-01-15T08:00:00Z,25.5870,-81.0440,1.5,1.45,1111122 
ENP,ioos.station.NOAA.NDBC:WIWF1:1,2015-01-15T09:00:00Z,25.5870,-81.0440,1.5,1.29,1111122 
ENP,ioos.station.NOAA.NDBC:WIWF1:1,2015-01-15T10:00:00Z,25.5870,-81.0440,1.5,1.16,1111122 
ENP,ioos.station.NOAA.NDBC:WIWF1:1,2015-01-15T11:00:00Z,25.5870,-81.0440,1.5,1.08,1111122 
ENP,ioos.station.NOAA.NDBC:WIWF1:1,2015-01-15T12:00:00Z,25.5870,-81.0440,1.5,1.09,1111122 
ENP,ioos.station.NOAA.NDBC:WIWF1:1,2015-01-15T13:00:00Z,25.5870,-81.0440,1.5,1.09,1111122 
ENP,ioos.station.NOAA.NDBC:WIWF1:1,2015-01-15T14:00:00Z,25.5870,-81.0440,1.5,1.08,1111122 
ENP,ioos.station.NOAA.NDBC:WIWF1:1,2015-01-15T15:00:00Z,25.5870,-81.0440,1.5,1.04,1111122 
ENP,ioos.station.NOAA.NDBC:WIWF1:1,2015-01-15T16:00:00Z,25.5870,-81.0440,1.5,0.97,1111122 
ENP,ioos.station.NOAA.NDBC:WIWF1:1,2015-01-15T17:00:00Z,25.5870,-81.0440,1.5,0.95,1111122 
ENP,ioos.station.NOAA.NDBC:WIWF1:1,2015-01-15T18:00:00Z,25.5870,-81.0440,1.5,0.99,1111122 
ENP,ioos.station.NOAA.NDBC:WIWF1:1,2015-01-15T19:00:00Z,25.5870,-81.0440,1.5,1.16,1111122 
ENP,ioos.station.NOAA.NDBC:WIWF1:1,2015-01-15T20:00:00Z,25.5870,-81.0440,1.5,1.19,1111122 
ENP,ioos.station.NOAA.NDBC:WIWF1:1,2015-01-15T21:00:00Z,25.5870,-81.0440,1.5,1.06,1111122 
ENP,ioos.station.NOAA.NDBC:WIWF1:1,2015-01-15T22:00:00Z,25.5870,-81.0440,1.5,1.09,1111122 
ENP,ioos.station.NOAA.NDBC:WIWF1:1,2015-01-15T23:00:00Z,25.5870,-81.0440,1.5,1.01,1111122 
ENP,ioos.station.NOAA.NDBC:WIWF1:1,2015-01-16T00:00:00Z,25.5870,-81.0440,1.5,0.89,1111122 
ENP,ioos.station.NOAA.NDBC:WIWF1:1,2015-01-16T01:00:00Z,25.5870,-81.0440,1.5,0.88,1111122 
ENP,ioos.station.NOAA.NDBC:WIWF1:1,2015-01-16T02:00:00Z,25.5870,-81.0440,1.5,0.92,1111122 
ENP,ioos.station.NOAA.NDBC:WIWF1:1,2015-01-16T04:00:00Z,25.5870,-81.0440,1.5,1.23,1111122 
ENP,ioos.station.NOAA.NDBC:WIWF1:1,2015-01-16T05:00:00Z,25.5870,-81.0440,1.5,1.31,1111122 
ENP,ioos.station.NOAA.NDBC:WIWF1:1,2015-01-16T06:00:00Z,25.5870,-81.0440,1.5,1.34,1111122 
ENP,ioos.station.NOAA.NDBC:WIWF1:1,2015-01-16T07:00:00Z,25.5870,-81.0440,1.5,1.39,1111122 
ENP,ioos.station.NOAA.NDBC:WIWF1:1,2015-01-16T08:00:00Z,25.5870,-81.0440,1.5,1.5,1111122 
ENP,ioos.station.NOAA.NDBC:WIWF1:1,2015-01-16T09:00:00Z,25.5870,-81.0440,1.5,1.56,1111122 
ENP,ioos.station.NOAA.NDBC:WIWF1:1,2015-01-16T10:00:00Z,25.5870,-81.0440,1.5,1.54,1111122 
ENP,ioos.station.NOAA.NDBC:WIWF1:1,2015-01-16T11:00:00Z,25.5870,-81.0440,1.5,1.53,1111122 
ENP,ioos.station.NOAA.NDBC:WIWF1:1,2015-01-16T12:00:00Z,25.5870,-81.0440,1.5,1.28,1111122 
ENP,ioos.station.NOAA.NDBC:WIWF1:1,2015-01-16T13:00:00Z,25.5870,-81.0440,1.5,1.17,1111122 
ENP,ioos.station.NOAA.NDBC:WIWF1:1,2015-01-16T14:00:00Z,25.5870,-81.0440,1.5,1.12,1111122 
ENP,ioos.station.NOAA.NDBC:WIWF1:1,2015-01-16T15:00:00Z,25.5870,-81.0440,1.5,1.12,1111122 
ENP,ioos.station.NOAA.NDBC:WIWF1:1,2015-01-16T16:00:00Z,25.5870,-81.0440,1.5,1.13,1111122 
ENP,ioos.station.NOAA.NDBC:WIWF1:1,2015-01-16T17:00:00Z,25.5870,-81.0440,1.5,1.03,1111122 
ENP,ioos.station.NOAA.NDBC:WIWF1:1,2015-01-16T18:00:00Z,25.5870,-81.0440,1.5,1.03,1111122 
ENP,ioos.station.NOAA.NDBC:WIWF1:1,2015-01-16T19:00:00Z,25.5870,-81.0440,1.5,1.03,1111122 
ENP,ioos.station.NOAA.NDBC:WIWF1:1,2015-01-16T20:00:00Z,25.5870,-81.0440,1.5,1.16,1111122 
ENP,ioos.station.NOAA.NDBC:WIWF1:1,2015-01-16T21:00:00Z,25.5870,-81.0440,1.5,1.16,1111122 
ENP,ioos.station.NOAA.NDBC:WIWF1:1,2015-01-16T22:00:00Z,25.5870,-81.0440,1.5,1.18,1111122 
ENP,ioos.station.NOAA.NDBC:WIWF1:1,2015-01-16T23:00:00Z,25.5870,-81.0440,1.5,1.07,1111122 
ENP,ioos.station.NOAA.NDBC:WIWF1:1,2015-01-17T00:00:00Z,25.5870,-81.0440,1.5,0.88,1111122 
ENP,ioos.station.NOAA.NDBC:WIWF1:1,2015-01-17T01:00:00Z,25.5870,-81.0440,1.5,0.87,1111122 
ENP,ioos.station.NOAA.NDBC:WIWF1:1,2015-01-17T02:00:00Z,25.5870,-81.0440,1.5,0.87,1111122 
ENP,ioos.station.NOAA.NDBC:WIWF1:1,2015-01-17T03:00:00Z,25.5870,-81.0440,1.5,0.87,1111122 
ENP,ioos.station.NOAA.NDBC:WIWF1:1,2015-01-17T04:00:00Z,25.5870,-81.0440,1.5,0.87,1111122 
ENP,ioos.station.NOAA.NDBC:WIWF1:1,2015-01-17T05:00:00Z,25.5870,-81.0440,1.5,1.27,1111122 
ENP,ioos.station.NOAA.NDBC:WIWF1:1,2015-01-17T06:00:00Z,25.5870,-81.0440,1.5,1.58,1111122 
ENP,ioos.station.NOAA.NDBC:WIWF1:1,2015-01-17T07:00:00Z,25.5870,-81.0440,1.5,1.56,1111122 
ENP,ioos.station.NOAA.NDBC:WIWF1:1,2015-01-17T08:00:00Z,25.5870,-81.0440,1.5,1.57,1111122 
ENP,ioos.station.NOAA.NDBC:WIWF1:1,2015-01-17T09:00:00Z,25.5870,-81.0440,1.5,1.63,1111122 
ENP,ioos.station.NOAA.NDBC:WIWF1:1,2015-01-17T10:00:00Z,25.5870,-81.0440,1.5,1.49,1111122 
ENP,ioos.station.NOAA.NDBC:WIWF1:1,2015-01-17T11:00:00Z,25.5870,-81.0440,1.5,1.25,1111122 
ENP,ioos.station.NOAA.NDBC:WIWF1:1,2015-01-17T12:00:00Z,25.5870,-81.0440,1.5,1.12,1111122 
ENP,ioos.station.NOAA.NDBC:WIWF1:1,2015-01-17T13:00:00Z,25.5870,-81.0440,1.5,1.13,1111122 
ENP,ioos.station.NOAA.NDBC:WIWF1:1,2015-01-17T14:00:00Z,25.5870,-81.0440,1.5,1.03,1111122 
ENP,ioos.station.NOAA.NDBC:WIWF1:1,2015-01-17T15:00:00Z,25.5870,-81.0440,1.5,0.97,1111122 
ENP,ioos.station.NOAA.NDBC:WIWF1:1,2015-01-17T16:00:00Z,25.5870,-81.0440,1.5,0.96,1111122 
ENP,ioos.station.NOAA.NDBC:WIWF1:1,2015-01-17T17:00:00Z,25.5870,-81.0440,1.5,1.02,1111122 
ENP,ioos.station.NOAA.NDBC:WIWF1:1,2015-01-17T18:00:00Z,25.5870,-81.0440,1.5,0.98,1111122 
ENP,ioos.station.NOAA.NDBC:WIWF1:1,2015-01-17T19:00:00Z,25.5870,-81.0440,1.5,0.98,1111122 
ENP,ioos.station.NOAA.NDBC:WIWF1:1,2015-01-17T20:00:00Z,25.5870,-81.0440,1.5,0.98,1111122 
ENP,ioos.station.NOAA.NDBC:WIWF1:1,2015-01-17T21:00:00Z,25.5870,-81.0440,1.5,1.01,1111122 
ENP,ioos.station.NOAA.NDBC:WIWF1:1,2015-01-17T22:00:00Z,25.5870,-81.0440,1.5,1.05,1111122 
ENP,ioos.station.NOAA.NDBC:WIWF1:1,2015-01-17T23:00:00Z,25.5870,-81.0440,1.5,1.13,1111122 
ENP,ioos.station.NOAA.NDBC:WIWF1:1,2015-01-18T00:00:00Z,25.5870,-81.0440,1.5,1.13,1111122 
ENP,ioos.station.NOAA.NDBC:WIWF1:1,2015-01-18T01:00:00Z,25.5870,-81.0440,1.5,1.14,1111122 
ENP,ioos.station.NOAA.NDBC:WIWF1:1,2015-01-18T02:00:00Z,25.5870,-81.0440,1.5,0.98,1111122 
ENP,ioos.station.NOAA.NDBC:WIWF1:1,2015-01-18T04:00:00Z,25.5870,-81.0440,1.5,1.02,1111122 
ENP,ioos.station.NOAA.NDBC:WIWF1:1,2015-01-18T05:00:00Z,25.5870,-81.0440,1.5,1.15,1111122 
ENP,ioos.station.NOAA.NDBC:WIWF1:1,2015-01-18T06:00:00Z,25.5870,-81.0440,1.5,1.19,1111122 
ENP,ioos.station.NOAA.NDBC:WIWF1:1,2015-01-18T07:00:00Z,25.5870,-81.0440,1.5,1.26,1111122 
ENP,ioos.station.NOAA.NDBC:WIWF1:1,2015-01-18T08:00:00Z,25.5870,-81.0440,1.5,1.33,1111122 
ENP,ioos.station.NOAA.NDBC:WIWF1:1,2015-01-18T09:00:00Z,25.5870,-81.0440,1.5,1.38,1111122 
ENP,ioos.station.NOAA.NDBC:WIWF1:1,2015-01-18T10:00:00Z,25.5870,-81.0440,1.5,1.47,1111122 
ENP,ioos.station.NOAA.NDBC:WIWF1:1,2015-01-18T11:00:00Z,25.5870,-81.0440,1.5,1.55,1111122 
ENP,ioos.station.NOAA.NDBC:WIWF1:1,2015-01-18T12:00:00Z,25.5870,-81.0440,1.5,1.57,1111122 
ENP,ioos.station.NOAA.NDBC:WIWF1:1,2015-01-18T13:00:00Z,25.5870,-81.0440,1.5,1.58,1111122 
ENP,ioos.station.NOAA.NDBC:WIWF1:1,2015-01-18T14:00:00Z,25.5870,-81.0440,1.5,1.38,1111122 
ENP,ioos.station.NOAA.NDBC:WIWF1:1,2015-01-18T15:00:00Z,25.5870,-81.0440,1.5,1.31,1111122 
ENP,ioos.station.NOAA.NDBC:WIWF1:1,2015-01-18T16:00:00Z,25.5870,-81.0440,1.5,1.23,1111122 
ENP,ioos.station.NOAA.NDBC:WIWF1:1,2015-01-18T17:00:00Z,25.5870,-81.0440,1.5,1.21,1111122 
ENP,ioos.station.NOAA.NDBC:WIWF1:1,2015-01-18T18:00:00Z,25.5870,-81.0440,1.5,1.12,1111122 
ENP,ioos.station.NOAA.NDBC:WIWF1:1,2015-01-18T19:00:00Z,25.5870,-81.0440,1.5,1.12,1111122 
ENP,ioos.station.NOAA.NDBC:WIWF1:1,2015-01-18T20:00:00Z,25.5870,-81.0440,1.5,1.13,1111122 
ENP,ioos.station.NOAA.NDBC:WIWF1:1,2015-01-18T21:00:00Z,25.5870,-81.0440,1.5,1.27,1111122 
ENP,ioos.station.NOAA.NDBC:WIWF1:1,2015-01-18T22:00:00Z,25.5870,-81.0440,1.5,1.4,1111122 
ENP,ioos.station.NOAA.NDBC:WIWF1:1,2015-01-18T23:00:00Z,25.5870,-81.0440,1.5,1.51,1111122 
ENP,ioos.station.NOAA.NDBC:WIWF1:1,2015-01-19T00:00:00Z,25.5870,-81.0440,1.5,1.64,1111122 
ENP,ioos.station.NOAA.NDBC:WIWF1:1,2015-01-19T01:00:00Z,25.5870,-81.0440,1.5,1.68,1111122 
ENP,ioos.station.NOAA.NDBC:WIWF1:1,2015-01-19T02:00:00Z,25.5870,-81.0440,1.5,1.64,1111122 
ENP,ioos.station.NOAA.NDBC:WIWF1:1,2015-01-19T03:00:00Z,25.5870,-81.0440,1.5,1.65,1111122 
ENP,ioos.station.NOAA.NDBC:WIWF1:1,2015-01-19T04:00:00Z,25.5870,-81.0440,1.5,1.4,1111122 
ENP,ioos.station.NOAA.NDBC:WIWF1:1,2015-01-19T05:00:00Z,25.5870,-81.0440,1.5,1.32,1111122 
ENP,ioos.station.NOAA.NDBC:WIWF1:1,2015-01-19T06:00:00Z,25.5870,-81.0440,1.5,1.28,1111122 
ENP,ioos.station.NOAA.NDBC:WIWF1:1,2015-01-19T07:00:00Z,25.5870,-81.0440,1.5,1.62,1111122 
ENP,ioos.station.NOAA.NDBC:WIWF1:1,2015-01-19T08:00:00Z,25.5870,-81.0440,1.5,1.78,1111122 
ENP,ioos.station.NOAA.NDBC:WIWF1:1,2015-01-19T09:00:00Z,25.5870,-81.0440,1.5,1.92,1111122 
ENP,ioos.station.NOAA.NDBC:WIWF1:1,2015-01-19T10:00:00Z,25.5870,-81.0440,1.5,2.13,1111122 
ENP,ioos.station.NOAA.NDBC:WIWF1:1,2015-01-19T11:00:00Z,25.5870,-81.0440,1.5,2.33,1111122 
ENP,ioos.station.NOAA.NDBC:WIWF1:1,2015-01-19T12:00:00Z,25.5870,-81.0440,1.5,2.38,1111122 
ENP,ioos.station.NOAA.NDBC:WIWF1:1,2015-01-19T13:00:00Z,25.5870,-81.0440,1.5,2.0,1111122 
ENP,ioos.station.NOAA.NDBC:WIWF1:1,2015-01-19T14:00:00Z,25.5870,-81.0440,1.5,1.9,1111122 
ENP,ioos.station.NOAA.NDBC:WIWF1:1,2015-01-19T15:00:00Z,25.5870,-81.0440,1.5,1.82,1111122 
ENP,ioos.station.NOAA.NDBC:WIWF1:1,2015-01-19T16:00:00Z,25.5870,-81.0440,1.5,1.69,1111122 
ENP,ioos.station.NOAA.NDBC:WIWF1:1,2015-01-19T17:00:00Z,25.5870,-81.0440,1.5,1.45,1111122 
ENP,ioos.station.NOAA.NDBC:WIWF1:1,2015-01-19T18:00:00Z,25.5870,-81.0440,1.5,1.28,1111122 